DW1920 Weather Reports


Display with metric or nautical units.
time (UTC)temp
F
wind
direction
speed
MPH
gust
MPH
rain 1hr
in
rain 24hr
in
rain mn
in
humidity
%
barometer
mb
20200704124001 57 78 12.0 14.0 0.00 0.00 0.00 96 1013.3
20200704123001 57 78 11.0 12.0 0.00 0.00 0.00 96 1013.3
20200704122001 57 73 11.0 13.0 0.00 0.00 0.00 96 1013.3
20200704121000 57 79 11.0 14.0 0.00 0.00 0.00 96 1013.3
20200704120000 57 63 12.0 15.0 0.00 0.00 0.00 96 1013.5
20200704115002 57 79 13.0 15.0 0.00 0.00 0.00 96 1013.3
20200704114001 57 83 14.0 16.0 0.00 0.00 0.00 96 1013.3
20200704113000 57 80 12.0 14.0 0.00 0.00 0.00 96 1013.3
20200704112001 57 80 12.0 14.0 0.00 0.00 0.00 96 1013.3
20200704111001 57 85 12.0 14.0 0.00 0.00 0.00 96 1013.2
20200704110000 57 84 11.0 14.0 0.00 0.01 0.00 96 1013.2
20200704105001 57 85 11.0 13.0 0.00 0.01 0.00 96 1013.3
20200704104000 57 81 10.0 14.0 0.00 0.01 0.00 95 1013.4
20200704103000 57 85 12.0 14.0 0.00 0.01 0.00 95 1013.3
20200704102001 57 80 11.0 13.0 0.00 0.01 0.00 95 1013.4
20200704101001 57 82 11.0 13.0 0.00 0.01 0.00 95 1013.3
20200704100000 58 82 11.0 13.0 0.00 0.01 0.00 95 1013.3
20200704095000 58 82 11.0 13.0 0.00 0.01 0.00 95 1013.2
20200704094001 58 77 9.0 11.0 0.00 0.01 0.00 95 1013.2
20200704093001 58 81 9.0 11.0 0.00 0.01 0.00 95 1013.0
20200704092000 58 68 9.0 11.0 0.00 0.01 0.00 95 1012.9
20200704091001 58 73 9.0 11.0 0.00 0.01 0.00 95 1012.9
20200704090000 58 72 8.0 9.0 0.00 0.01 0.00 95 1012.9
20200704085000 59 58 7.0 10.0 0.00 0.01 0.00 95 1012.9
20200704084001 59 55 7.0 9.0 0.00 0.01 0.00 95 1012.8
20200704083000 59 54 7.0 9.0 0.00 0.01 0.00 94 1012.7
20200704082000 59 49 7.0 10.0 0.00 0.01 0.00 94 1012.5
20200704081000 59 47 4.0 8.0 0.00 0.01 0.00 95 1012.4
20200704080000 59 36 5.0 8.0 0.00 0.01 0.00 94 1012.7
20200704075001 59 34 6.0 9.0 0.00 0.01 0.00 94 1012.6
20200704074000 59 36 5.0 9.0 0.00 0.01 0.00 94 1012.8
20200704073000 59 34 6.0 11.0 0.00 0.01 0.00 94 1012.9
20200704072001 59 42 7.0 9.0 0.00 0.01 0.00 94 1012.8
20200704071000 59 20 4.0 9.0 0.00 0.01 0.00 94 1012.9
20200704070000 59 19 4.0 8.0 0.00 0.01 0.00 94 1012.9
20200704065001 59 27 5.0 8.0 0.00 0.01 0.00 94 1012.9
20200704064000 59 14 4.0 7.0 0.00 0.01 0.00 94 1012.8
20200704063000 59 25 4.0 9.0 0.00 0.01 0.00 94 1012.8
20200704062001 59 39 6.0 9.0 0.00 0.01 0.00 94 1012.8
20200704061000 59 46 7.0 9.0 0.00 0.01 0.00 94 1012.8
20200704060002 59 42 7.0 9.0 0.00 0.01 0.00 94 1012.8
20200704055000 59 46 7.0 9.0 0.00 0.01 0.00 94 1012.8
20200704054000 59 25 6.0 10.0 0.00 0.01 0.00 94 1013.0
20200704053001 59 32 5.0 10.0 0.00 0.01 0.00 94 1012.9
20200704052000 59 37 5.0 9.0 0.00 0.01 0.00 94 1012.9
20200704051000 59 25 5.0 8.0 0.00 0.01 0.00 94 1012.9
20200704050000 59 29 5.0 9.0 0.00 0.01 0.00 94 1013.2
20200704045000 59 35 5.0 8.0 0.00 0.01 0.00 94 1013.3
20200704044000 59 43 6.0 8.0 0.00 0.01 0.00 94 1013.3
20200704043001 59 37 5.0 9.0 0.00 0.01 0.00 94 1013.4
20200704042001 59 35 6.0 11.0 0.00 0.01 0.00 94 1013.5
20200704041001 59 34 6.0 10.0 0.00 0.01 0.00 94 1013.4
20200704040000 59 39 4.0 9.0 0.00 0.01 0.01 94 1013.6
20200704035000 59 16 5.0 10.0 0.00 0.01 0.01 94 1013.8
20200704034001 58 26 5.0 11.0 0.00 0.01 0.01 94 1013.8
20200704033001 58 39 8.0 12.0 0.00 0.01 0.01 93 1013.9
20200704032000 58 36 7.0 12.0 0.00 0.01 0.01 93 1014.0
20200704031001 58 38 9.0 12.0 0.00 0.01 0.01 93 1014.0
20200704030000 58 32 9.0 12.0 0.00 0.01 0.01 93 1014.1
20200704025000 58 41 9.0 13.0 0.00 0.01 0.01 92 1014.1
20200704024001 58 44 9.0 12.0 0.00 0.01 0.01 92 1014.1
20200704023000 58 42 8.0 10.0 0.00 0.01 0.01 92 1014.3
20200704022000 59 38 7.0 11.0 0.00 0.01 0.01 92 1014.2
20200704021000 59 55 8.0 11.0 0.00 0.01 0.01 91 1014.3
20200704020000 59 42 6.0 11.0 0.00 0.01 0.01 91 1014.4
20200704015001 59 46 7.0 10.0 0.00 0.01 0.01 91 1014.4
20200704014001 59 43 8.0 12.0 0.00 0.01 0.01 91 1014.3
20200704013000 59 61 8.0 10.0 0.00 0.01 0.01 91 1014.2
20200704012000 59 49 8.0 10.0 0.00 0.01 0.01 91 1014.2
20200704011000 59 43 7.0 9.0 0.00 0.01 0.01 91 1014.1
20200704010001 59 60 7.0 11.0 0.00 0.01 0.01 91 1014.0
20200704005000 60 67 9.0 11.0 0.00 0.01 0.01 91 1013.7
20200704004000 60 47 8.0 9.0 0.00 0.01 0.01 91 1013.8
20200704003000 60 38 5.0 9.0 0.00 0.01 0.01 91 1013.9
20200704002000 60 45 7.0 11.0 0.00 0.02 0.01 91 1013.6
20200704001001 60 44 10.0 11.0 0.00 0.05 0.01 91 1013.3
20200704000000 59 39 7.0 11.0 0.00 0.15 0.01 91 1013.3
20200703235000 59 30 6.0 12.0 0.00 0.21 0.01 91 1013.5
20200703234001 59 36 9.0 12.0 0.00 0.21 0.01 91 1013.5
20200703233000 59 34 8.0 13.0 0.00 0.21 0.01 91 1013.6
20200703232000 59 46 12.0 15.0 0.00 0.21 0.01 90 1013.4
20200703231001 60 47 12.0 14.0 0.00 0.21 0.01 90 1013.4
20200703230029 60 38 10.0 15.0 0.00 0.21 0.01 89 1013.4
20200703225017 60 46 12.0 14.0 0.00 0.21 0.01 89 1013.4
20200703224000 61 53 12.0 15.0 0.00 0.21 0.01 88 1013.2
20200703223000 61 60 11.0 17.0 0.00 0.21 0.01 88 1013.4
20200703222001 61 76 13.0 15.0 0.00 0.21 0.01 89 1013.4
20200703221000 60 72 13.0 17.0 0.00 0.21 0.01 89 1013.4
20200703220000 60 68 14.0 18.0 0.00 0.21 0.01 87 1013.3
20200703215000 61 68 13.0 17.0 0.00 0.21 0.01 87 1013.3
20200703214000 61 63 12.0 20.0 0.00 0.21 0.01 86 1013.5
20200703213001 61 79 17.0 20.0 0.00 0.21 0.01 87 1013.3
20200703212001 60 75 15.0 18.0 0.00 0.21 0.01 88 1013.4
20200703211000 60 71 14.0 18.0 0.00 0.21 0.01 89 1013.5
20200703210001 60 47 10.0 12.0 0.00 0.21 0.01 88 1013.8
20200703205000 60 46 9.0 12.0 0.00 0.21 0.01 88 1013.7
20200703204000 60 49 11.0 15.0 0.00 0.21 0.01 88 1013.6
20200703203001 60 45 13.0 15.0 0.00 0.21 0.01 88 1013.6
20200703202002 60 53 11.0 14.0 0.00 0.21 0.01 88 1013.5
20200703201001 60 54 9.0 16.0 0.00 0.21 0.01 88 1013.6
20200703200000 60 56 11.0 15.0 0.00 0.21 0.01 87 1013.5
20200703194001 60 71 17.0 20.0 0.00 0.21 0.01 86 1013.5
20200703193000 60 74 17.0 21.0 0.00 0.21 0.01 86 1013.6
20200703192001 60 75 19.0 22.0 0.00 0.21 0.01 86 1013.5
20200703191001 60 75 17.0 19.0 0.00 0.21 0.01 86 1013.6
20200703190000 60 75 13.0 16.0 0.00 0.21 0.01 87 1013.8
20200703185001 60 75 14.0 17.0 0.00 0.21 0.01 87 1013.8
20200703184001 60 72 13.0 16.0 0.00 0.21 0.01 87 1013.9
20200703183000 60 57 11.0 17.0 0.00 0.21 0.01 87 1013.9
20200703182000 60 51 13.0 18.0 0.00 0.21 0.01 86 1013.8
20200703181001 60 55 14.0 19.0 0.00 0.21 0.01 86 1013.9
20200703180000 61 60 15.0 20.0 0.00 0.21 0.01 86 1013.8
20200703175001 61 58 15.0 20.0 0.00 0.21 0.01 86 1013.7
20200703174001 61 68 14.0 20.0 0.00 0.21 0.01 87 1013.7
20200703173000 61 63 15.0 20.0 0.00 0.21 0.01 86 1013.6
20200703172001 61 64 16.0 23.0 0.00 0.21 0.01 86 1013.6
20200703171001 61 63 18.0 24.0 0.00 0.21 0.01 86 1013.6
20200703170000 61 68 20.0 24.0 0.00 0.21 0.01 86 1013.7
20200703165001 61 70 20.0 25.0 0.00 0.21 0.01 86 1013.3
20200703164000 61 74 21.0 25.0 0.00 0.21 0.01 86 1013.4
20200703163000 61 71 19.0 23.0 0.00 0.21 0.01 87 1013.2
20200703162001 62 73 20.0 24.0 0.00 0.21 0.01 86 1013.3
20200703161001 62 73 19.0 25.0 0.00 0.21 0.01 86 1013.4
20200703160023 62 75 21.0 25.0 0.00 0.21 0.01 86 1013.1
20200703155001 63 79 18.0 20.0 0.00 0.21 0.01 87 1013.1
20200703154000 63 78 14.0 16.0 0.00 0.21 0.01 87 1013.0
20200703153001 64 52 11.0 14.0 0.00 0.21 0.01 87 1012.9
20200703152001 64 52 13.0 15.0 0.00 0.21 0.01 88 1013.0
20200703151000 63 52 10.0 13.0 0.00 0.21 0.01 89 1012.9
20200703150000 63 49 12.0 17.0 0.00 0.21 0.01 88 1013.0
20200703145000 63 44 14.0 16.0 0.00 0.21 0.01 89 1013.0
20200703144000 63 42 10.0 13.0 0.00 0.21 0.01 90 1013.2
20200703143001 63 39 8.0 14.0 0.00 0.21 0.01 90 1013.1
20200703142001 63 44 11.0 16.0 0.00 0.21 0.01 90 1013.0
20200703141000 63 44 12.0 17.0 0.00 0.21 0.01 90 1012.9
20200703140000 62 47 12.0 17.0 0.00 0.21 0.01 89 1012.8
20200703135001 63 42 12.0 19.0 0.00 0.21 0.01 89 1012.8
20200703134001 63 42 14.0 19.0 0.00 0.21 0.01 90 1012.8
20200703133000 63 35 15.0 21.0 0.00 0.21 0.01 90 1012.7
20200703132000 62 40 16.0 24.0 0.00 0.21 0.01 91 1012.4
20200703131001 62 40 14.0 20.0 0.00 0.21 0.01 91 1012.4
20200703130000 61 49 14.0 18.0 0.00 0.21 0.01 92 1012.5
20200703125001 61 49 14.0 18.0 0.00 0.21 0.01 92 1012.6